Location: Marne
(34.0056°N, 117.9064°W)
Time: 15:03:43
(UTC+00:00)

Shenzhou-11 Module - Pass Details

Date: 18 January 2020
Orbit: 297 x 311 km, 42.8° (Epoch: 26 February)

Event Time Altitude Azimuth Distance (km) Brightness Sun altitude
Rises 02:33:49 0° 218° (SW) 2,014 6.6 -17.8°
Reaches altitude 10° 02:35:56 10° 206° (SSW) 1,185 5.0 -18.2°
Enters shadow 02:37:25 22° 177° (S) 724 3.5 -18.5°
